NP4KB Weather Reports


time (UTC)temp
C
wind
direction
speed
KPH
gust
KPH
rain 1hr
cm
rain 24hr
cm
rain mn
cm
humidity
%
barometer
mb
20260507214632 -17 61 6.4 11.3 0.00 0.00 0.00 1019.8
20260507214129 -17 95 4.8 11.3 0.00 0.00 0.00 1019.8
20260507213625 -17 125 1.6 1.6 0.00 0.00 0.00 1019.9
20260507213122 -17 123 4.8 9.7 0.00 0.00 0.00 1019.9
20260507212618 -17 132 3.2 8.0 0.00 0.00 0.00 1019.8
20260507212115 -17 110 9.7 12.9 0.00 0.00 0.00 1019.7
20260507211612 -17 83 6.4 8.0 0.00 0.00 0.00 1019.6
20260507211107 -17 156 1.6 3.2 0.00 0.00 0.00 1019.7
20260507210605 -17 88 8.0 9.7 0.00 0.00 0.00 1019.7
20260507205558 -17 90 1.6 4.8 0.00 0.00 0.00 1020.0
20260507205054 -17 86 6.4 11.3 0.00 0.00 0.00 1019.5
20260507204551 -17 110 9.7 12.9 0.00 0.00 0.00 1019.7
20260507204049 -17 101 9.7 12.9 0.00 0.00 0.00 1019.8
20260507203546 -17 105 8.0 12.9 0.00 0.00 0.00 1019.7
20260507203044 -17 148 9.7 14.5 0.00 0.00 0.00 1019.7
20260507202539 -17 140 8.0 9.7 0.00 0.00 0.00 1019.9
20260507202035 -17 83 9.7 11.3 0.00 0.00 0.00 1019.8
20260507201531 -17 128 11.3 14.5 0.00 0.00 0.00 1020.3
20260507201028 -17 120 11.3 11.3 0.00 0.00 0.00 1020.1
20260507200523 -17 111 9.7 12.9 0.00 0.00 0.00 1019.9
20260507200020 -17 78 11.3 16.1 0.00 0.00 0.00 1020.0
20260507195517 -17 111 16.1 16.1 0.00 0.00 0.00 1020.1
20260507195015 -17 64 3.2 4.8 0.00 0.00 0.00 1019.8
20260507194511 -17 126 9.7 11.3 0.00 0.00 0.00 1020.3
20260507194007 -17 128 8.0 12.9 0.00 0.00 0.00 1020.3
20260507193504 -17 114 11.3 11.3 0.00 0.00 0.00 1020.2
20260507193001 -17 148 8.0 12.9 0.00 0.00 0.00 1020.4
20260507192456 -17 123 4.8 8.0 0.00 0.00 0.00 1020.2
20260507191954 -17 124 1.6 3.2 0.00 0.00 0.00 1020.3
20260507191449 -17 117 9.7 12.9 0.00 0.00 0.00 1020.5
20260507190946 -17 122 8.0 12.9 0.00 0.00 0.00 1020.5
20260507190444 -17 146 11.3 12.9 0.00 0.00 0.00 1020.6
20260507185943 -17 105 6.4 12.9 0.00 0.00 0.00 1020.4
20260507185439 -17 258 1.6 4.8 0.00 0.00 0.00 1020.2
20260507184936 -17 82 4.8 11.3 0.00 0.00 0.00 1020.4
20260507184434 -17 57 6.4 12.9 0.00 0.00 0.00 1020.8
20260507183932 -17 98 11.3 12.9 0.00 0.00 0.00 1020.4
20260507183428 -17 80 11.3 12.9 0.00 0.00 0.00 1020.4
20260507182926 -17 109 11.3 14.5 0.00 0.00 0.00 1020.3
20260507182421 -17 87 11.3 14.5 0.00 0.00 0.00 1020.6
20260507181918 -17 102 3.2 9.7 0.00 0.00 0.00 1020.6
20260507181414 -17 151 6.4 9.7 0.00 0.00 0.00 1020.7
20260507180911 -17 130 9.7 12.9 0.00 0.00 0.00 1021.0
20260507180408 -17 123 4.8 8.0 0.00 0.00 0.00 1020.9
20260507175903 -17 119 14.5 16.1 0.00 0.00 0.00 1021.0
20260507175400 -17 111 4.8 9.7 0.00 0.00 0.00 1021.0
20260507174858 -17 159 4.8 9.7 0.00 0.00 0.00 1021.2
20260507174355 -17 119 8.0 11.3 0.00 0.00 0.00 1021.0
20260507173853 -17 70 6.4 9.7 0.00 0.00 0.00 1021.4
20260507173349 -17 108 9.7 14.5 0.00 0.00 0.00 1021.2
20260507172846 -17 67 4.8 11.3 0.00 0.00 0.00 1021.3
20260507172343 -17 106 12.9 16.1 0.00 0.00 0.00 1021.4
20260507171838 -17 85 6.4 12.9 0.00 0.00 0.00 1021.5
20260507171335 -17 165 4.8 11.3 0.00 0.00 0.00 1021.4
20260507170833 -17 117 14.5 17.7 0.00 0.00 0.00 1021.5
20260507170329 -17 132 4.8 8.0 0.00 0.00 0.00 1021.6
20260507165825 -17 140 8.0 11.3 0.00 0.00 0.00 1021.6
20260507165321 -17 174 4.8 8.0 0.00 0.00 0.00 1021.9
20260507164817 -17 156 6.4 11.3 0.00 0.00 0.00 1022.0
20260507164314 -17 38 12.9 16.1 0.00 0.00 0.00 1022.1
20260507163812 -17 94 9.7 12.9 0.00 0.00 0.00 1022.1
20260507163309 -17 126 3.2 8.0 0.00 0.00 0.00 1022.1
20260507162805 -17 116 11.3 14.5 0.00 0.00 0.00 1022.3
20260507162301 -17 90 11.3 12.9 0.00 0.00 0.00 1022.3
20260507161758 -17 113 11.3 16.1 0.00 0.00 0.00 1022.2
20260507161255 -17 134 14.5 14.5 0.00 0.00 0.00 1022.5
20260507160750 -17 99 1.6 3.2 0.00 0.00 0.00 1022.4
20260507160247 -17 116 9.7 11.3 0.00 0.00 0.00 1022.4
20260507155743 -17 148 14.5 20.9 0.00 0.00 0.00 1022.6
20260507155239 -17 140 17.7 20.9 0.00 0.00 0.00 1022.3
20260507154736 -17 134 16.1 20.9 0.00 0.00 0.00 1022.5
20260507154234 -17 94 4.8 9.7 0.00 0.00 0.00 1022.4
20260507153730 -17 139 14.5 16.1 0.00 0.00 0.00 1022.6
20260507153226 -17 77 9.7 16.1 0.00 0.00 0.00 1022.6
20260507152723 -17 135 9.7 11.3 0.00 0.00 0.00 1022.4
20260507152220 -17 128 11.3 14.5 0.00 0.00 0.00 1022.6
20260507151715 -17 79 1.6 8.0 0.00 0.00 0.00 1022.6
20260507151212 -17 95 3.2 4.8 0.00 0.00 0.00 1022.5
20260507150709 -17 114 8.0 11.3 0.00 0.00 0.00 1022.6
20260507150206 -17 142 11.3 16.1 0.00 0.00 0.00 1022.5
20260507145701 -17 141 17.7 24.1 0.00 0.00 0.00 1022.4
20260507145158 -17 151 8.0 11.3 0.00 0.00 0.00 1022.7
20260507144655 -17 113 8.0 11.3 0.00 0.00 0.00 1022.5
20260507144153 -17 113 9.7 12.9 0.00 0.00 0.00 1022.6
20260507143650 -17 156 4.8 4.8 0.00 0.00 0.00 1022.4
20260507143146 -17 55 8.0 11.3 0.00 0.00 0.00 1022.6
20260507142642 -17 124 8.0 11.3 0.00 0.00 0.00 1022.7
20260507142133 -17 97 6.4 9.7 0.00 0.00 0.00 1022.7
20260507141629 -17 134 4.8 4.8 0.00 0.00 0.00 1022.7
20260507141126 -17 86 8.0 9.7 0.00 0.00 0.00 1022.7
20260507140623 -17 95 6.4 9.7 0.00 0.00 0.00 1022.8
20260507140120 -17 126 16.1 17.7 0.00 0.00 0.00 1023.0
20260507135617 -17 122 8.0 12.9 0.00 0.00 0.00 1022.7
20260507135115 -17 88 8.0 11.3 0.00 0.00 0.00 1022.8
20260507134611 -17 141 4.8 4.8 0.00 0.00 0.00 1022.7
20260507134107 -17 102 6.4 11.3 0.00 0.00 0.00 1022.8
20260507133603 -17 108 11.3 14.5 0.00 0.00 0.00 1022.9
20260507133101 -17 130 9.7 12.9 0.00 0.00 0.00 1022.9
20260507132557 -17 104 9.7 12.9 0.00 0.00 0.00 1022.7
20260507132054 -17 144 9.7 14.5 0.00 0.00 0.00 1022.8
20260507131551 -17 132 16.1 20.9 0.00 0.00 0.00 1022.5
20260507131048 -17 102 14.5 16.1 0.00 0.00 0.00 1022.6
20260507130545 -17 153 4.8 8.0 0.00 0.00 0.00 1022.4
20260507130043 -17 130 16.1 17.7 0.00 0.00 0.00 1022.2
20260507125542 -17 163 8.0 12.9 0.00 0.00 0.00 1022.5
20260507125038 -17 139 9.7 12.9 0.00 0.00 0.00 1022.6
20260507124534 -17 118 8.0 11.3 0.00 0.00 0.00 1022.3
20260507124033 -17 117 8.0 12.9 0.00 0.00 0.00 1022.5
20260507123530 -17 157 0.0 3.2 0.00 0.00 0.00 1022.2
20260507123027 -17 178 11.3 14.5 0.00 0.00 0.00 1022.2
20260507122522 -17 123 16.1 17.7 0.00 0.00 0.00 1022.4
20260507122018 -17 132 9.7 11.3 0.00 0.00 0.00 1022.2
20260507121514 -17 141 11.3 12.9 0.00 0.00 0.00 1022.4
20260507121010 -17 125 9.7 12.9 0.00 0.00 0.00 1022.3
20260507120506 -17 178 6.4 8.0 0.00 0.00 0.00 1022.3
20260507120004 -17 104 11.3 16.1 0.00 0.00 0.00 1022.4
20260507115500 -17 105 9.7 12.9 0.00 0.00 0.00 1022.2
20260507114955 -17 123 9.7 11.3 0.00 0.00 0.00 1022.3
20260507114451 -17 58 9.7 12.9 0.00 0.00 0.00 1022.2
20260507113944 -17 141 8.0 11.3 0.00 0.00 0.00 1022.0
20260507113441 -17 90 8.0 12.9 0.00 0.00 0.00 1022.2
20260507112938 -17 111 9.7 12.9 0.00 0.00 0.00 1022.1
20260507112435 -17 98 8.0 12.9 0.00 0.00 0.00 1021.7
20260507111932 -17 100 6.4 9.7 0.00 0.00 0.00 1021.8
20260507111430 -17 150 6.4 9.7 0.00 0.00 0.00 1021.7
20260507110926 -17 141 4.8 4.8 0.00 0.00 0.00 1021.8
20260507110422 -17 91 4.8 8.0 0.00 0.00 0.00 1022.0
20260507105919 -17 52 1.6 3.2 0.00 0.00 0.00 1021.7
20260507105416 -17 103 9.7 12.9 0.00 0.00 0.00 1021.6
20260507104912 -17 84 0.0 0.0 0.00 0.00 0.00 1021.6
20260507104409 -17 92 1.6 3.2 0.00 0.00 0.00 1021.8
20260507103905 -17 113 9.7 12.9 0.00 0.00 0.00 1021.8
20260507103402 -17 133 1.6 3.2 0.00 0.00 0.00 1021.6
20260507102858 -17 124 4.8 8.0 0.00 0.00 0.00 1021.8
20260507102354 -17 39 0.0 0.0 0.00 0.00 0.00 1021.6
20260507101851 -17 118 8.0 9.7 0.00 0.00 0.00 1021.6
20260507101350 -17 98 0.0 1.6 0.00 0.00 0.00 1021.8
20260507100848 -17 161 0.0 0.0 0.00 0.00 0.00 1021.4
20260507100346 -17 143 0.0 0.0 0.00 0.00 0.00 1021.5
20260507095844 -17 144 4.8 8.0 0.00 0.00 0.00 1021.4
20260507095340 -17 127 1.6 3.2 0.00 0.00 0.00 1021.1
20260507094837 -17 125 6.4 8.0 0.00 0.00 0.00 1021.7
20260507094334 -17 106 1.6 1.6 0.00 0.00 0.00 1021.7
20260507093831 -17 119 6.4 8.0 0.00 0.00 0.00 1021.5
20260507093329 -17 124 0.0 0.0 0.00 0.00 0.00 1021.5
20260507092827 -17 111 8.0 9.7 0.00 0.00 0.00 1021.4
20260507092324 -17 146 0.0 0.0 0.00 0.00 0.00 1021.4
20260507091820 -17 151 0.0 0.0 0.00 0.00 0.00 1021.6
20260507091316 -17 70 0.0 0.0 0.00 0.00 0.00 1021.4
20260507090812 -17 109 1.6 3.2 0.00 0.00 0.00 1021.7
20260507090308 -17 89 0.0 0.0 0.00 0.00 0.00 1021.5
20260507085805 -17 81 0.0 0.0 0.00 0.00 0.00 1021.4
20260507085306 -17 123 0.0 3.2 0.00 0.00 0.00 1021.7
20260507084800 -17 140 0.0 0.0 0.00 0.00 0.00 1021.4
20260507084256 -17 124 1.6 3.2 0.00 0.00 0.00 1021.5
20260507083754 -17 143 0.0 1.6 0.00 0.00 0.00 1021.6
20260507083250 -17 44 0.0 0.0 0.00 0.00 0.00 1021.3
20260507082746 -17 146 0.0 0.0 0.00 0.00 0.00 1021.5
20260507082242 -17 95 0.0 1.6 0.00 0.00 0.00 1021.0
20260507081739 -17 95 1.6 3.2 0.00 0.00 0.00 1021.2
20260507081235 -17 80 8.0 11.3 0.00 0.00 0.00 1021.2
20260507080732 -17 102 0.0 0.0 0.00 0.00 0.00 1021.3
20260507080228 -17 88 1.6 3.2 0.00 0.00 0.00 1021.3
20260507075723 -17 127 0.0 0.0 0.00 0.00 0.00 1021.3
20260507075220 -17 171 0.0 0.0 0.00 0.00 0.00 1021.3
20260507074716 -17 62 0.0 0.0 0.00 0.00 0.00 1021.3
20260507074215 -17 62 0.0 0.0 0.00 0.00 0.00 1021.3
20260507073711 -17 93 0.0 0.0 0.00 0.00 0.00 1021.3
20260507073207 -17 284 0.0 0.0 0.00 0.00 0.00 1021.4
20260507072705 -17 142 0.0 0.0 0.00 0.00 0.00 1021.5
20260507072202 -17 108 4.8 4.8 0.00 0.00 0.00 1021.5
20260507071700 -17 144 0.0 0.0 0.00 0.00 0.00 1021.2
20260507071155 -17 126 0.0 0.0 0.00 0.00 0.00 1021.4
20260507070653 -17 67 0.0 0.0 0.00 0.00 0.00 1021.5
20260507070149 -17 129 0.0 0.0 0.00 0.00 0.00 1021.6
20260507065645 -17 124 4.8 8.0 0.00 0.00 0.00 1021.5
20260507065137 -17 26 0.0 1.6 0.00 0.00 0.00 1021.6
20260507064635 -17 86 0.0 0.0 0.00 0.00 0.00 1021.7
20260507064133 -17 146 0.0 0.0 0.00 0.00 0.00 1021.7
20260507063630 -17 152 0.0 0.0 0.00 0.00 0.00 1021.7
20260507063127 -17 35 6.4 9.7 0.00 0.00 0.00 1021.8
20260507062624 -17 144 0.0 0.0 0.00 0.00 0.00 1021.8
20260507062122 -17 163 0.0 1.6 0.00 0.00 0.00 1022.0
20260507061619 -17 117 0.0 0.0 0.00 0.00 0.00 1022.0
20260507061117 -17 150 0.0 0.0 0.00 0.00 0.00 1022.1
20260507060615 -17 88 0.0 0.0 0.00 0.00 0.00 1022.3
20260507060111 -17 118 0.0 0.0 0.00 0.00 0.00 1022.1
20260507055607 -17 155 0.0 0.0 0.00 0.00 0.00 1022.1
20260507055103 -17 94 0.0 0.0 0.00 0.00 0.00 1022.2
20260507054559 -17 99 0.0 0.0 0.00 0.00 0.00 1022.3
20260507054056 -17 129 3.2 8.0 0.00 0.00 0.00 1022.1
20260507053554 -17 101 0.0 0.0 0.00 0.00 0.00 1022.3
20260507053052 -17 90 0.0 0.0 0.00 0.00 0.00 1022.6
20260507052550 -17 125 0.0 0.0 0.00 0.00 0.00 1022.3
20260507052046 -17 196 0.0 0.0 0.00 0.00 0.00 1022.7
20260507051544 -17 99 0.0 0.0 0.00 0.00 0.00 1022.7
20260507051041 -17 134 0.0 0.0 0.00 0.00 0.00 1022.8
20260507050537 -17 161 1.6 3.2 0.00 0.00 0.00 1023.1
20260507050034 -17 299 0.0 0.0 0.00 0.00 0.00 1022.8
20260507045530 -17 177 0.0 0.0 0.00 0.00 0.00 1023.1
20260507045028 -17 188 0.0 0.0 0.00 0.00 0.00 1023.1
20260507044524 -17 59 3.2 8.0 0.00 0.00 0.00 1023.0
20260507044021 -17 116 3.2 4.8 0.00 0.00 0.00 1023.2
20260507043517 -17 184 0.0 1.6 0.00 0.00 0.00 1023.3
20260507043015 -17 139 8.0 9.7 0.00 0.00 0.00 1023.3
20260507042510 -17 196 0.0 0.0 0.00 0.00 0.00 1023.4
20260507042006 -17 82 0.0 0.0 0.00 0.00 0.00 1023.4
20260507041503 -17 223 0.0 0.0 0.00 0.00 0.00 1023.5
20260507041000 -17 127 0.0 0.0 0.00 0.00 0.00 1023.6
20260507040456 -17 77 3.2 4.8 0.00 0.00 0.00 1023.6
20260507035951 -17 81 0.0 1.6 0.00 0.00 0.00 1023.6
20260507035448 -17 137 1.6 3.2 0.00 0.00 0.00 1023.7
20260507034945 -17 41 0.0 0.0 0.00 0.00 0.00 1023.5
20260507034442 -17 63 1.6 3.2 0.00 0.00 0.00 1023.8
20260507033940 -17 82 4.8 8.0 0.00 0.00 0.00 1023.8
20260507033438 -17 80 0.0 1.6 0.00 0.00 0.00 1023.7
20260507032934 -17 114 0.0 0.0 0.00 0.00 0.00 1023.7
20260507032432 -17 178 3.2 4.8 0.00 0.00 0.00 1023.7
20260507031927 -17 175 0.0 0.0 0.00 0.00 0.00 1023.7
20260507031426 -17 49 1.6 3.2 0.00 0.00 0.00 1023.5
20260507030921 -17 118 1.6 9.7 0.00 0.00 0.00 1023.6
20260507030418 -17 121 0.0 0.0 0.00 0.00 0.00 1023.6
20260507025915 -17 61 12.9 17.7 0.00 0.00 0.00 1023.8
20260507025413 -17 55 3.2 9.7 0.00 0.00 0.00 1023.7
20260507024910 -17 93 4.8 14.5 0.00 0.00 0.00 1023.7
20260507024407 -17 95 4.8 9.7 0.00 0.00 0.00 1023.8
20260507023903 -17 67 11.3 14.5 0.00 0.00 0.00 1023.8
20260507023400 -17 122 12.9 17.7 0.00 0.00 0.00 1023.6
20260507022857 -17 86 9.7 14.5 0.00 0.00 0.00 1023.6
20260507022354 -17 92 8.0 12.9 0.00 0.00 0.00 1023.4
20260507021850 -17 121 6.4 14.5 0.00 0.00 0.00 1023.7
20260507021345 -17 101 3.2 3.2 0.00 0.00 0.00 1023.7
20260507020843 -17 133 3.2 4.8 0.00 0.00 0.00 1023.5
20260507020339 -17 68 3.2 8.0 0.00 0.00 0.00 1023.7
20260507015837 -17 59 6.4 8.0 0.00 0.00 0.00 1023.6
20260507015335 -17 60 3.2 4.8 0.00 0.00 0.00 1023.8
20260507014831 -17 91 3.2 11.3 0.00 0.00 0.00 1023.6
20260507014328 -17 120 4.8 8.0 0.00 0.00 0.00 1023.4
20260507013824 -17 44 1.6 1.6 0.00 0.00 0.00 1023.5
20260507013321 -17 76 4.8 9.7 0.00 0.00 0.00 1023.4
20260507012819 -17 130 4.8 9.7 0.00 0.00 0.00 1023.3
20260507012314 -17 52 0.0 1.6 0.00 0.00 0.00 1023.1
20260507011806 -17 92 0.0 0.0 0.00 0.00 0.00 1023.2
20260507011303 -17 74 0.0 0.0 0.00 0.00 0.00 1023.1
20260507010802 -17 108 4.8 9.7 0.00 0.00 0.00 1023.1
20260507010259 -17 70 4.8 8.0 0.00 0.00 0.00 1023.1
20260507005756 -17 76 4.8 9.7 0.00 0.00 0.00 1023.0
20260507005252 -17 144 8.0 11.3 0.00 0.00 0.00 1022.9
20260507004749 -17 129 11.3 12.9 0.00 0.00 0.00 1023.0
20260507004247 -17 138 0.0 0.0 0.00 0.00 0.00 1022.9
20260507003743 -17 107 4.8 8.0 0.00 0.00 0.00 1022.8
20260507003238 -17 87 4.8 9.7 0.00 0.00 0.00 1022.7
20260507002734 -17 235 0.0 0.0 0.00 0.00 0.00 1022.5
20260507002231 -17 108 4.8 12.9 0.00 0.00 0.00 1022.6
20260507001727 -17 151 6.4 8.0 0.00 0.00 0.00 1022.7
20260507001225 -17 112 6.4 11.3 0.00 0.00 0.00 1022.5
20260507000721 -17 142 0.0 0.0 0.00 0.00 0.00 1022.6
20260507000217 -17 94 0.0 1.6 0.00 0.00 0.00 1022.2
20260506235714 -17 114 8.0 9.7 0.00 0.00 0.00 1022.5
20260506235209 -17 119 1.6 3.2 0.00 0.00 0.00 1022.0
20260506234706 -17 126 1.6 3.2 0.00 0.00 0.00 1022.2
20260506234204 -17 128 0.0 1.6 0.00 0.00 0.00 1022.0
20260506233701 -17 133 0.0 0.0 0.00 0.00 0.00 1021.9
20260506233157 -17 127 4.8 8.0 0.00 0.00 0.00 1022.0
20260506232654 -17 99 4.8 8.0 0.00 0.00 0.00 1022.0
20260506232149 -17 127 3.2 4.8 0.00 0.00 0.00 1021.7
20260506231646 -17 92 0.0 1.6 0.00 0.00 0.00 1021.8
20260506231145 -17 60 1.6 3.2 0.00 0.00 0.00 1021.9
20260506230641 -17 75 4.8 8.0 0.00 0.00 0.00 1021.7
20260506230138 -17 111 9.7 11.3 0.00 0.00 0.00 1022.0
20260506225635 -17 100 6.4 9.7 0.00 0.00 0.00 1021.4
20260506225132 -17 96 6.4 9.7 0.00 0.00 0.00 1021.5
20260506224628 -17 102 4.8 9.7 0.00 0.00 0.00 1021.4
20260506224125 -17 125 8.0 11.3 0.00 0.00 0.00 1021.6
20260506223621 -17 105 1.6 4.8 0.00 0.00 0.00 1021.6
20260506223117 -17 121 1.6 3.2 0.00 0.00 0.00 1021.4
20260506222614 -17 100 9.7 12.9 0.00 0.00 0.00 1021.3
20260506222111 -17 178 4.8 8.0 0.00 0.00 0.00 1021.3
20260506221608 -17 100 14.5 16.1 0.00 0.00 0.00 1021.0
20260506221106 -17 126 1.6 4.8 0.00 0.00 0.00 1021.2
20260506220602 -17 144 11.3 12.9 0.00 0.00 0.00 1021.2
20260506220057 -17 128 12.9 14.5 0.00 0.00 0.00 1021.2
20260506215554 -17 137 8.0 11.3 0.00 0.00 0.00 1021.0